Location: Nairn
(57.5833°N, 3.8667°W)
Time: 16:38:09
(UTC+00:00)

Cosmos 2219 Rocket - Pass Details

Date: 07 August 2020
Orbit: 826 x 848 km, 71.0° (Epoch: 22 September)

Event Time Altitude Azimuth Distance (km) Brightness Sun altitude
Rises 23:59:40 0° 323° (NW) 3,414 6.4 -15.9°
Reaches altitude 10° 00:02:07 10° 323° (NW) 2,478 5.5 -16.0°
Maximum altitude 00:07:49 84° 237° (WSW) 860 2.2 -16.0°
Enters shadow 00:11:43 21° 150° (SSE) 1,806 3.4 -16.0°
